Tracking 29892 objects as of 21-Nov-2024
HD Live streaming from Space Station
objects crossing your sky now

SL-8 DEB

Track SL-8 DEB now!
10-day predictions


NORAD ID: 29289
Int'l Code: 1981-120T
Perigee: 1,573.2 km
Apogee: 1,663.9 km
Inclination: 83.0 °
Period: 118.5 minutes
Semi major axis: 7989 km
RCS: 0.0067 m2 (small)
Launch date: December 17, 1981
Source: Commonwealth of Independent States (former USSR) (CIS)
Launch site: PLESETSK MISSILE AND SPACE COMPLEX (PKMTR)

Note: This is SATELLITE DEBRIS
Your satellite tracking list
Your tracking list is empty




NASA's NSSDC Master Catalog

Two Line Element Set (TLE):
1 29289U 81120T   24324.52634418  .00000057  00000-0  47525-3 0  9998
2 29289  82.9616 230.0286 0056754  56.9542 118.0303 12.15671211507525
Source of the keplerian elements: AFSPC